Weather reports worldwide

Advertisment
Greifswald, Germany (10184): temperature & dewpoint: 16.06.2018 15:00:00 - 22.06.2018 15:00:00 (CEST)Greifswald, Germany (10184): temperature 5cm & temperature -5cm: 16.06.2018 15:00:00 - 22.06.2018 15:00:00 (CEST)Greifswald, Germany (10184): temperature -20cm & temperature -100cm: 16.06.2018 15:00:00 - 22.06.2018 15:00:00 (CEST)Greifswald, Germany (10184): wind speed & gusts: 16.06.2018 15:00:00 - 22.06.2018 15:00:00 (CEST)Greifswald, Germany (10184): wind direction: 16.06.2018 15:00:00 - 22.06.2018 15:00:00 (CEST)Greifswald, Germany (10184): reduced air pressure: 16.06.2018 15:00:00 - 22.06.2018 15:00:00 (CEST)Greifswald, Germany (10184): visibility: 16.06.2018 15:00:00 - 22.06.2018 15:00:00 (CEST)Greifswald, Germany (10184): sunshine duration: 16.06.2018 15:00:00 - 22.06.2018 15:00:00 (CEST)Greifswald, Germany (10184): precipitation: 16.06.2018 15:00:00 - 22.06.2018 15:00:00 (CEST)
Date & Time tt [°C] td [°C] tt 5cm [°C] tt -5cm [°C] tt -20cm [°C] tt -100cm [°C] ff [km/h] ff [kn] fx [km/h] fx [kn] dd ppp [hPa] vv [km] sd [min] rr [mm]
22.06.2018 15:00:00 18,2 7,2 20,7 21,8 18,0 17,9 22 12 39 21 WNW 1014,9 35 49 0,0
22.06.2018 14:00:00 17,7 8,0 20,4 20,8 17,3 17,9 20 11 40 22 WNW 1014,7 40 46 0,0
22.06.2018 13:00:00 16,9 7,3 20,4 19,5 16,7 17,9 23 12 38 21 W 1014,5 40 48 0,0
22.06.2018 12:00:00 15,5 7,5 18,4 17,8 16,1 17,9 26 14 42 23 W 1014,4 35 25 0,0
22.06.2018 11:00:00 14,7 8,8 16,9 16,7 15,6 17,9 21 12 43 23 WNW 1013,8 40 29 0,0
22.06.2018 10:00:00 13,8 9,0 15,7 15,2 15,2 17,9 21 11 37 20 W 1013,3 35 24 0,0
22.06.2018 09:00:00 12,6 8,8 13,4 14,0 14,9 17,9 18 10 38 20 W 1012,7 30 28 0,0
22.06.2018 08:00:00 11,1 8,4 11,3 12,9 14,8 17,9 21 11 35 19 WSW 1012,3 35 28 0,0
22.06.2018 07:00:00 9,9 8,4 10,4 11,8 14,9 17,9 16 9 33 18 WSW 1012,1 30 13 0,3
22.06.2018 06:00:00 8,9 7,5 8,2 11,0 15,1 17,9 16 9 33 18 WSW 1012,0 35 0 0,0
22.06.2018 05:00:00 8,9 7,3 8,2 11,1 15,3 17,9 13 7 29 16 WSW 1012,1 26 0 0,3
22.06.2018 04:00:00 9,0 7,2 8,2 11,1 15,6 17,9 18 10 39 21 WSW 1011,9 6 0 0,8
22.06.2018 03:00:00 9,4 6,6 8,3 11,1 16,0 17,9 18 10 34 18 WSW 1012,0 50 0 0,0
22.06.2018 02:00:00 9,7 7,2 8,3 11,5 16,3 17,9 18 10 31 17 WSW 1011,8 50 0 0,5
22.06.2018 01:00:00 9,8 6,8 8,7 11,7 16,8 17,9 19 11 38 20 W 1012,6 32 0 0,0
22.06.2018 00:00:00 10,3 7,2 9,2 12,1 17,2 17,9 21 11 41 22 WSW 1012,3 58 0 0,0
21.06.2018 23:00:00 10,5 7,3 9,1 12,7 17,8 17,9 19 10 38 21 WSW 1012,2 65 0 0,0
21.06.2018 22:00:00 10,7 7,4 9,3 13,4 18,3 17,9 22 12 37 20 W 1011,9 70 0 0,0
21.06.2018 21:00:00 10,8 7,6 9,4 14,5 18,7 17,9 23 12 40 21 W 1011,8 48 39 0,0
21.06.2018 20:00:00 10,6 7,9 9,8 15,9 19,0 17,9 23 12 41 22 W 1011,8 48 37 0,3
21.06.2018 19:00:00 10,9 8,8 10,7 16,1 19,2 17,9 26 14 46 25 W 1011,3 18 9 0,2
21.06.2018 18:00:00 11,3 9,5 11,5 16,2 19,5 17,9 25 13 53 29 WNW 1009,7 45 1 1,0
21.06.2018 17:00:00 12,0 9,8 12,2 16,7 19,7 17,9 18 10 53 28 W 1008,9 30 0 0,2
21.06.2018 16:00:00 14,3 11,4 13,7 17,6 19,9 17,9 22 12 48 26 W 1008,6 30 0 0,0
21.06.2018 15:00:00 13,8 11,3 14,3 17,5 20,2 17,9 13 7 23 13 WSW 1008,5 48 0 0,0
21.06.2018 14:00:00 12,6 11,0 13,0 17,1 20,6 17,9 10 5 20 11 W 1008,6 45 0 1,5
21.06.2018 13:00:00 12,1 10,5 12,0 17,6 21,0 17,9 13 7 25 13 WNW 1009,0 5 0 1,0
21.06.2018 12:00:00 12,0 11,0 12,3 17,8 21,5 17,9 14 8 37 20 WNW 1009,3 4,0 0 3,8
21.06.2018 11:00:00 13,6 12,4 13,6 19,8 21,9 17,8 14 7 34 18 WNW 1008,6 3,0 0 2,3
21.06.2018 10:00:00 14,7 13,5 14,8 22,8 21,7 17,8 19 11 44 24 NNW 1007,6 3,0 0 0,3
21.06.2018 09:00:00 20,2 15,1 22,8 22,4 21,4 17,8 11 6 23 12 SSW 1007,9 21 37 0,0
21.06.2018 08:00:00 18,7 14,9 20,3 20,8 21,4 17,8 9 5 18 10 SW 1009,4 16 43 0,0
21.06.2018 07:00:00 17,9 14,7 18,9 19,6 21,6 17,8 10 5 16 9 WSW 1010,0 13 47 0,0
21.06.2018 06:00:00 16,6 14,6 16,0 19,1 22,0 17,8 8 4 13 7 SW 1010,6 9 26 0,0
21.06.2018 05:00:00 16,7 14,9 15,6 19,5 22,4 17,8 9 5 14 8 SW 1011,3 9 0 0,0
21.06.2018 04:00:00 16,8 14,8 15,3 20,0 22,9 17,8 5 3 11 6 SW 1012,1 11 0 0,0
21.06.2018 03:00:00 15,9 14,6 13,9 20,6 23,4 17,8 5 3 8 5 SW 1012,8 12 0 0,0
21.06.2018 02:00:00 17,3 15,0 14,9 21,5 23,9 17,8 5 3 10 5 WSW 1013,4 14 0 0,0
21.06.2018 01:00:00 18,9 14,6 17,1 22,3 24,4 17,8 8 4 26 14 W 1014,0 19 0 0,0
21.06.2018 00:00:00 19,8 14,0 17,6 23,1 25,0 17,8 6 3 12 7 SW 1013,9 22 0 0,0
20.06.2018 23:00:00 20,4 14,2 18,0 24,3 25,5 17,8 5 3 11 6 SSW 1014,4 25 0 0,0
20.06.2018 22:00:00 22,0 14,2 19,9 25,9 26,0 17,8 8 4 17 9 SSW 1014,9 32 1 0,0
20.06.2018 21:00:00 23,9 14,0 22,6 27,8 26,3 17,8 10 5 22 12 SW 1015,0 36 60 0,0
20.06.2018 20:00:00 25,0 13,9 24,8 29,6 26,3 17,8 13 7 31 17 WSW 1015,4 35 60 0,0
20.06.2018 19:00:00 25,3 13,7 26,3 30,6 26,2 17,8 14 8 30 16 WSW 1016,1 30 44 0,0
20.06.2018 18:00:00 25,1 14,2 26,4 31,5 25,9 17,8 18 10 40 22 SW 1016,8 18 32 0,0
20.06.2018 17:00:00 25,2 13,9 26,8 32,4 25,4 17,8 22 12 43 23 WSW 1017,4 23 46 0,0
20.06.2018 16:00:00 24,7 13,4 27,1 32,1 24,7 17,8 23 12 42 23 SSW 1018,1 20 50 0,0
20.06.2018 15:00:00 24,8 13,8 28,9 30,6 23,9 17,8 21 11 43 23 SW 1018,6 25 25 0,0
20.06.2018 14:00:00 24,2 13,1 28,6 30,5 23,0 17,8 19 11 39 21 SW 1019,3 20 45 0,0
20.06.2018 13:00:00 24,1 13,4 29,1 29,6 21,9 17,8 20 11 38 21 SW 1020,2 30 53 0,0
20.06.2018 12:00:00 22,6 13,5 28,4 27,4 20,9 17,8 18 10 35 19 SSW 1020,9 30 50 0,0
20.06.2018 11:00:00 21,6 13,0 26,2 25,0 20,0 17,8 16 9 31 17 WSW 1021,4 45 50 0,0
20.06.2018 10:00:00 18,7 11,2 22,0 21,8 19,4 17,8 14 7 27 15 SSW 1022,0 48 41 0,0
20.06.2018 09:00:00 17,4 10,6 21,1 19,3 19,0 17,8 12 6 18 10 SSW 1022,2 35 60 0,0
20.06.2018 08:00:00 15,7 10,4 19,5 17,2 19,0 17,8 9 5 14 8 SW 1022,3 35 60 0,0
20.06.2018 07:00:00 14,5 10,2 16,7 16,0 19,2 17,8 5 3 14 7 SW 1022,4 41 60 0,0
20.06.2018 06:00:00 12,2 9,5 11,6 15,5 19,6 17,8 6 4 13 7 SW 1022,3 25 33 0,0
20.06.2018 05:00:00 11,5 9,3 10,4 15,8 20,1 17,8 8 4 16 9 WSW 1022,3 30 0 0,0
20.06.2018 04:00:00 12,1 9,6 10,7 16,4 20,6 17,8 9 5 14 8 WSW 1022,1 30 0 0,0
20.06.2018 03:00:00 12,6 9,5 10,4 17,1 21,1 17,8 8 4 15 8 WSW 1022,1 35 0 0,0
20.06.2018 02:00:00 13,5 9,7 11,8 17,8 21,6 17,8 10 5 16 9 WSW 1022,2 40 0 0,0
20.06.2018 01:00:00 13,7 10,3 11,3 18,7 22,2 17,8 8 4 13 7 WSW 1022,2 40 0 0,0
20.06.2018 00:00:00 14,8 10,6 13,3 19,8 22,8 17,8 8 4 17 9 WSW 1022,1 45 0 0,0
19.06.2018 23:00:00 15,9 10,7 14,0 21,1 23,4 17,8 11 6 17 9 W 1021,8 50 0 0,0
19.06.2018 22:00:00 16,9 11,2 15,2 22,7 23,9 17,8 9 5 19 10 W 1021,5 60 10 0,0
19.06.2018 21:00:00 18,7 11,4 17,8 24,8 24,1 17,8 11 6 26 14 NW 1020,8 50 60 0,0
19.06.2018 20:00:00 20,9 13,5 21,2 26,8 24,1 17,8 17 9 40 22 WNW 1020,4 45 60 0,0
19.06.2018 19:00:00 22,3 13,0 23,4 27,6 23,8 17,8 24 13 37 20 W 1020,0 30 42 0,0
19.06.2018 18:00:00 22,8 13,7 24,6 27,8 23,4 17,8 23 12 35 19 W 1019,7 35 50 0,0
19.06.2018 17:00:00 22,3 14,2 25,2 26,5 23,0 17,8 19 11 31 17 W 1019,8 35 16 0,0
19.06.2018 16:00:00 21,5 13,6 23,1 27,1 22,6 17,8 20 11 39 21 W 1019,7 35 22 0,0
19.06.2018 15:00:00 21,7 13,5 24,3 26,1 22,1 17,8 26 14 39 21 WNW 1019,5 28 13 0,0
19.06.2018 14:00:00 21,7 13,4 25,7 24,5 21,7 17,8 16 9 31 17 WSW 1019,3 30 6 0,0
19.06.2018 13:00:00 21,0 13,1 23,8 24,6 21,2 17,7 21 11 38 21 W 1019,2 25 14 0,0
19.06.2018 12:00:00 20,3 13,4 22,6 23,1 20,8 17,7 20 11 34 18 W 1019,2 17 7 0,0
19.06.2018 11:00:00 18,9 13,2 19,7 21,8 20,6 17,7 21 11 36 19 W 1019,1 30 0 0,0
19.06.2018 10:00:00 19,3 13,3 21,3 20,7 20,4 17,7 17 9 31 17 WSW 1018,3 40 2 0,0
19.06.2018 09:00:00 18,2 13,4 18,8 19,9 20,3 17,7 13 7 26 14 SW 1018,0 28 18 0,0
19.06.2018 08:00:00 17,3 13,7 18,3 19,0 20,4 17,7 16 8 26 14 WSW 1018,0 15 51 0,0
19.06.2018 07:00:00 16,1 14,0 15,7 18,4 20,6 17,7 12 6 34 19 WSW 1018,1 15 0 0,9
19.06.2018 06:00:00 16,3 14,5 16,1 18,5 20,9 17,7 14 8 27 15 WSW 1017,6 14 0 0,0
19.06.2018 05:00:00 16,4 14,9 15,7 18,9 21,2 17,7 11 6 20 11 SW 1017,3 13 0 0,0
19.06.2018 04:00:00 16,7 15,0 15,7 19,5 21,5 17,7 9 5 21 11 SW 1017,2 20 0 0,0
19.06.2018 03:00:00 16,8 15,5 16,1 20,0 21,8 17,7 8 5 31 17 WSW 1017,5 12 0 0,1
19.06.2018 02:00:00 18,6 13,4 18,2 20,3 22,1 17,7 20 11 31 17 W 1017,5 35 0 0,0
19.06.2018 01:00:00 18,2 13,0 17,7 20,4 22,4 17,7 8 5 15 8 SSW 1017,1 60 0 0,0
19.06.2018 00:00:00 18,0 13,0 16,7 21,1 22,8 17,7 7 4 14 8 S 1017,4 65 0 0,0
18.06.2018 23:00:00 18,4 13,0 16,5 21,8 23,2 17,7 6 3 16 9 SSW 1017,9 55 0 0,0
18.06.2018 22:00:00 20,0 13,2 19,3 22,8 23,5 17,7 6 3 13 7 SW 1017,8 60 0 0,0
18.06.2018 21:00:00 20,6 12,4 20,1 23,7 23,7 17,7 5 3 9 5 W 1017,5 65 0 0,0
18.06.2018 20:00:00 20,9 11,4 20,9 24,4 23,9 17,7 6 3 15 8 W 1017,5 70 0 0,0
18.06.2018 19:00:00 21,4 10,3 21,4 25,3 24,0 17,7 8 4 16 9 SW 1017,6 70 0 0,0
18.06.2018 18:00:00 21,7 10,0 22,3 26,5 23,9 17,7 10 6 24 13 WSW 1017,8 70 0 0,0
18.06.2018 17:00:00 21,9 9,7 23,7 27,8 23,5 17,7 14 8 30 16 WSW 1018,0 65 10 0,0
18.06.2018 16:00:00 22,4 9,2 26,0 27,2 23,1 17,7 12 6 26 14 WSW 1018,3 60 7 0,0
18.06.2018 15:00:00 21,1 10,0 22,5 26,5 22,6 17,7 14 7 25 13 W 1018,5 67 9 0,0
18.06.2018 14:00:00 21,1 10,5 26,7 25,9 22,2 17,6 9 5 18 10 SSW 1018,6 30 26 0,0
18.06.2018 13:00:00 19,3 11,1 20,2 24,1 22,0 17,6 11 6 21 11 W 1019,0 40 0 0,0
18.06.2018 12:00:00 19,1 10,5 19,8 24,2 21,6 17,6 10 5 19 10 SW 1019,2 50 2 0,0
18.06.2018 11:00:00 20,2 10,5 24,8 25,0 21,0 17,6 12 7 22 12 WSW 1018,9 55 48 0,0
18.06.2018 10:00:00 19,3 8,1 24,3 22,7 20,5 17,6 8 4 19 11 W 1018,9 35 47 0,0
18.06.2018 09:00:00 18,2 10,3 21,8 20,6 20,3 17,6 11 6 17 9 WNW 1019,2 45 28 0,0
18.06.2018 08:00:00 16,6 11,4 17,7 19,1 20,4 17,6 8 4 13 7 W 1019,1 42 0 0,0
18.06.2018 07:00:00 15,6 11,1 16,1 18,5 20,5 17,6 6 4 10 5 WSW 1018,9 40 0 0,0
18.06.2018 06:00:00 14,9 11,0 14,8 18,1 20,8 17,6 6 3 9 5 SSW 1018,3 42 0 0,0
18.06.2018 05:00:00 14,7 10,7 13,6 18,3 21,2 17,6 5 3 11 6 WSW 1018,3 46 0 0,0
18.06.2018 04:00:00 14,7 10,5 14,0 18,6 21,6 17,6 4 2 8 4 WSW 1018,3 48 0 0,0
18.06.2018 03:00:00 14,7 10,5 14,0 19,0 22,0 17,6 4 2 8 4 WSW 1018,3 48 0 0,0
18.06.2018 02:00:00 14,7 10,5 12,6 19,6 22,5 17,6 5 3 8 5 SSW 1018,2 45 0 0,0
18.06.2018 01:00:00 15,4 10,8 14,6 20,3 23,0 17,6 5 3 9 5 SSW 1017,8 48 0 0,0
18.06.2018 00:00:00 14,8 11,5 12,7 21,1 23,5 17,6 4 2 12 7 WSW 1017,5 45 0 0,0
17.06.2018 23:00:00 17,1 11,1 16,1 22,3 24,0 17,6 5 3 9 5 W 1017,3 45 0 0,0
17.06.2018 22:00:00 17,1 12,1 15,6 23,4 24,5 17,6 6 3 11 6 W 1017,2 40 0 0,0
17.06.2018 21:00:00 18,2 12,2 18,0 25,0 24,9 17,6 9 5 42 23 NW 1016,8 42 3 0,0
17.06.2018 20:00:00 20,9 11,2 20,6 27,0 25,0 17,6 10 6 29 15 NW 1015,9 50 18 0,0
17.06.2018 19:00:00 22,0 10,8 22,6 28,4 24,9 17,6 14 8 25 14 W 1015,2 55 33 0,0
17.06.2018 18:00:00 22,3 10,5 23,5 29,7 24,6 17,6 17 9 26 14 WNW 1014,9 50 45 0,0
17.06.2018 17:00:00 23,5 10,5 26,8 30,2 24,0 17,5 15 8 36 19 WNW 1014,8 31 51 0,0
17.06.2018 16:00:00 22,7 9,5 25,0 29,4 23,3 17,5 17 9 34 19 WSW 1014,5 15 35 0,0
17.06.2018 15:00:00 22,6 10,8 26,4 28,1 22,7 17,5 18 10 33 18 W 1014,4 8 28 0,0
17.06.2018 14:00:00 22,1 12,1 25,5 27,1 22,0 17,5 19 11 32 17 WSW 1014,3 8 28 0,0
17.06.2018 13:00:00 20,9 14,1 23,3 25,2 21,4 17,5 11 6 24 13 WSW 1014,1 11 8 0,0
17.06.2018 12:00:00 20,6 14,6 23,9 24,6 20,8 17,5 14 8 24 13 W 1014,2 12 18 0,0
17.06.2018 11:00:00 19,5 14,4 22,9 22,3 20,5 17,5 9 5 20 11 W 1014,2 12 6 0,0
17.06.2018 10:00:00 18,2 14,8 19,6 20,3 20,4 17,5 10 5 18 10 W 1014,2 8 0 0,0
17.06.2018 09:00:00 17,9 15,1 17,5 20,2 20,3 17,5 6 4 16 9 WNW 1013,4 9 1 0,0
17.06.2018 08:00:00 18,3 14,1 19,2 19,7 20,3 17,5 6 3 26 14 NW 1013,3 11 11 0,0
17.06.2018 07:00:00 18,8 13,2 20,2 18,6 20,4 17,5 12 6 29 16 WSW 1013,1 13 49 0,0
17.06.2018 06:00:00 14,6 12,9 13,7 17,8 20,7 17,5 4 2 6 4 S 1012,5 10 5 0,0
17.06.2018 05:00:00 14,7 12,6 12,3 18,1 21,1 17,5 0 0 9 5 N 1012,7 13 0 0,0
17.06.2018 04:00:00 16,2 12,9 12,9 18,7 21,5 17,5 4 2 14 7 S 1012,7 15 0 0,0
17.06.2018 03:00:00 17,4 13,1 15,2 19,3 21,9 17,5 7 4 18 10 SSE 1013,0 15 0 0,0
17.06.2018 02:00:00 17,9 13,3 16,3 20,0 22,3 17,4 8 5 19 10 SSE 1013,3 15 0 0,0
17.06.2018 01:00:00 16,5 13,2 15,7 20,5 22,7 17,4 8 4 16 9 ESE 1013,5 15 0 0,0
17.06.2018 00:00:00 17,0 13,3 15,9 21,0 23,1 17,4 10 6 18 10 ESE 1014,0 15 0 0,0
16.06.2018 23:00:00 17,8 12,7 16,9 21,7 23,6 17,4 15 8 23 13 ESE 1014,1 15 0 0,0
16.06.2018 22:00:00 17,9 12,2 16,5 22,8 24,0 17,4 15 8 25 13 ESE 1014,3 30 0 0,0
16.06.2018 21:00:00 19,1 11,7 18,8 24,1 24,3 17,4 14 7 27 15 ESE 1014,5 30 0 0,0
16.06.2018 20:00:00 19,5 11,5 19,5 25,3 24,5 17,4 16 9 28 15 E 1014,6 30 0 0,0
16.06.2018 19:00:00 20,2 11,5 20,8 26,5 24,6 17,4 19 10 31 17 E 1014,8 30 8 0,0
16.06.2018 18:00:00 21,0 12,2 22,1 27,1 24,6 17,4 21 11 36 19 E 1015,1 13 10 0,0
16.06.2018 17:00:00 20,5 11,6 21,2 27,0 24,7 17,4 21 11 31 17 E 1015,5 13 0 0,0
16.06.2018 16:00:00 21,9 11,9 24,0 28,1 24,5 17,4 19 10 32 17 E 1015,9 13 3 0,0
16.06.2018 15:00:00 22,2 11,2 23,9 28,9 24,1 17,4 22 12 29 16 E 1016,1 20 6 0,0

tt = temperature
td = dewpoint
tt 5cm = temperature 5cm
tt -5cm = temperature -5cm
tt -20cm = temperature -20cm
tt -100cm = temperature -100cm
ff = wind speed
fx = gusts
dd = wind direction
ppp = reduced air pressure
vv = visibility
sd = sunshine duration
rr = precipitation

Next stations